Weather Roundup
Issued by NWS

Home | Current Version | Previous Version | Graphics & Text | Print | Product List | Glossary Off
Versions: 1 2 3 4 5 6 7 8 9 10 11 12 13 14 15 16 17 18 19 20 21 22 23 24 25 26 27 28 29 30 31 32 33 34 35 36 37 38 39 40 41 42 43 44 45 46 47 48 49 50

000
NZUS93 KARX 220659
HRRWXR

CURRENT HOURLY OBSERVATIONS ACROSS
MUCH OF THE UPPER MISSISSIPPI VALLEY
NATIONAL WEATHER SERVICE LA CROSSE WI
200 AM CDT MON SEP 22 2014


...SOUTHEAST MINNESOTA...


CITY           SKY/WX    TMP DP  RH WIND       PRES   REMARKS
ROCHESTER      CLEAR     47  45  93 W7        30.24S
ROCHESTER/MAYO FAIR      50  45  81 W3        30.24R
WINONA         CLEAR     48  46  93 CALM      30.22S
AUSTIN         CLEAR     46  45  93 CALM      30.24R
ALBERT LEA     CLEAR     52  48  87 CALM      30.25R
DODGE CENTER   PTCLDY    45  45 100 W5        30.24R
PRESTON        CLEAR     47  47 100 NW6       30.23S
OWATONNA       CLEAR     45  43  93 CALM      30.25R
FARIBAULT      CLEAR     52  46  82 CALM      30.25R
$$

...ELSEWHERE IN MINNESOTA...


CITY           SKY/WX    TMP DP  RH WIND       PRES   REMARKS
MINNEAPOLIS    CLEAR     51  48  89 W3        30.23S
INTNL FALLS    CLEAR     40  39  97 SW3       30.14S
DULUTH         MOCLDY    50  46  86 NW6       30.19R
RED WING       CLEAR     45  45 100 CALM      30.22R
REDWOOD FALLS  CLEAR     47  45  93 SW3       30.25S
MANKATO        CLEAR     50  45  81 CALM      30.25S
WORTHINGTON    CLEAR     45  43  93 CALM      30.28S
FAIRMONT       CLEAR     46  41  81 CALM      30.26S
$$

...SOUTHWEST WISCONSIN...


CITY           SKY/WX    TMP DP  RH WIND       PRES   REMARKS
LA CROSSE      CLEAR     47  45  93 SE5       30.22R
PRAIRIE DU CHI CLEAR     46  44  94 CALM      30.23R
BOSCOBEL       FOG       45  44  97 CALM      30.23R VSB 1/4
LONE ROCK      NOT AVBL
PLATTEVILLE    CLEAR     46  44  93 NW3       30.22S
FORT MC COY    CLEAR     38  37  99 CALM      30.23R
CAMP DOUGLAS   FOG       37  37 100 CALM      30.20F VSB 1
VIROQUA        FAIR      43  43 100 CALM      30.22R
WIS DELLS      CLEAR     42  39  92 CALM      30.20F
$$

...ELSEWHERE IN WISCONSIN...


CITY           SKY/WX    TMP DP  RH WIND       PRES   REMARKS
MILWAUKEE      CLEAR     47  40  76 N7        30.19R
MADISON        CLEAR     44  40  85 CALM      30.20S
GREEN BAY      CLEAR     40  38  93 CALM      30.17S
EAU CLAIRE     CLEAR     47  44  90 CALM      30.20R
BLACK RVR FLS  FOG       36  36 100 CALM      30.21S VSB 1/4
MEDFORD        CLEAR     37  37  99 CALM      30.18F FOG
WAUSAU         CLEAR     42  39  89 NW5       30.17S
WIS RAPIDS     CLEAR     39  37  92 CALM      30.21R
MARSHFIELD     CLEAR     42  39  89 W5        30.19S
RICE LAKE      FOG       43  42  96 CALM      30.22R VSB 1/2
$$

...NORTHEAST IOWA...


CITY           SKY/WX    TMP DP  RH WIND       PRES   REMARKS
WATERLOO       CLEAR     47  45  93 NW5       30.23R
DUBUQUE        CLEAR     48  45  89 N7        30.22R
DECORAH        CLEAR     48  46  93 CALM      30.23R
MASON CITY     CLEAR     46  45  96 W8        30.27R
CHARLES CITY   CLEAR     46  45  93 CALM      30.25S
OELWEIN        CLEAR     48  45  87 N6        30.24R
$$

...ELSEWHERE IN IOWA...


CITY           SKY/WX    TMP DP  RH WIND       PRES   REMARKS
DES MOINES     CLEAR     54  48  80 N5        30.26R
IOWA CITY        N/A     47  45  93 W3        30.23R
FORT DODGE     CLEAR     46  45  93 CALM      30.27S
MARSHALLTOWN   CLEAR     47  45  93 N5        30.25R
CEDAR RAPIDS   CLEAR     47  46  97 NW7       30.22R
$$

...NORTHERN ILLINOIS...


CITY           SKY/WX    TMP DP  RH WIND       PRES   REMARKS
CHICAGO-OHARE  PTCLDY    50  42  74 N9        30.17R
DUPAGE         CLEAR     43  41  93 N6        30.17R
CHICAGO-MIDWAY PTCLDY    53  45  74 N8        30.16R
MOLINE         CLEAR     54  46  74 NW3       30.20R
ROCKFORD       CLEAR     47  42  83 N6        30.22R
STERLING       CLEAR     48  43  81 NE6       30.20R
PEORIA         CLEAR     53  48  83 N3        30.19R
$$

NOTE: "FAIR" INDICATES FEW OR NO CLOUDS BELOW 12,000 FEET WITH NO
SIGNIFICANT WEATHER AND/OR OBSTRUCTIONS TO VISIBILITY. WIND
SPEEDS ARE IN MILES-PER-HOUR.



USA.gov is the U.S. government's official web portal to all federal, state and local government web resources and services.